Weather Roundup
Issued by NWS Corpus Christi, TX

Home | Current Version | Previous Version | Text Only | Print | Product List | Glossary On
Versions: 1 2 3 4 5 6 7 8 9 10 11 12 13 14 15 16 17 18 19 20 21 22 23 24 25 26 27 28 29 30 31 32 33 34 35 36 37 38 39 40 41 42 43 44 45 46 47 48 49 50
000
ASUS44 KCRP 230210
HRRCRP

SOUTH TEXAS REGIONAL WEATHER ROUNDUP
NATIONAL WEATHER SERVICE CORPUS CHRISTI TX
900 PM CDT MON SEP 22 2014


TXZ229>244-230300-
...CORPUS CHRISTI AREA OBSERVATIONS...

CITY           SKY/WX    TMP DP  RH WIND       PRES   REMARKS
CORPUS CHRISTI PTCLDY    79  72  79 SE8       30.01R
NAS CORPUS CHR MOCLDY    82  73  74 E7        30.01R
ROCKPORT       CLEAR     82  73  74 SE7       30.01R
KINGSVILLE NAS PTCLDY    77  70  79 E6        30.02R
ALICE          CLEAR     77  68  73 S5        30.02R
FALFURRIAS     CLEAR    N/A N/A N/A CALM      30.02R
$$

...VICTORIA AREA OBSERVATIONS...

CITY           SKY/WX    TMP DP  RH WIND       PRES   REMARKS
VICTORIA       MOCLDY    79  73  82 SE3       30.04R
BEEVILLE       FAIR      81  67  62 SE6       30.02R
PLEASANTON     MOCLDY    85  63  47 NE6       30.05R
SAN ANTONIO    PTCLDY    85  67  54 E12       30.07R
$$

...LAREDO AREA OBSERVATIONS...

CITY           SKY/WX    TMP DP  RH WIND       PRES   REMARKS
LAREDO         CLEAR     84  63  49 SE7       30.06R
COTULLA        CLOUDY    84  68  58 E5        30.04R
DEL RIO        CLEAR     82  64  54 SW3       30.05R
MCALLEN        CLEAR     81  72  74 NE6       30.02R
HEBBRONVILLE   CLEAR     77  65  64 E3        30.06R
$$

...OTHER TEXAS OBSERVATIONS...

CITY           SKY/WX    TMP DP  RH WIND       PRES   REMARKS
BROWNSVILLE    PTCLDY    80  74  81 NE6       29.99R
HOUSTON        PTCLDY    80  67  64 NE8       30.05R
COL. STATION   PTCLDY    80  64  58 NE8       30.07R
AUSTIN         PTCLDY    81  69  67 E5        30.07R
WACO           CLEAR     75  56  51 NE6       30.10R
FORT WORTH     PTCLDY    77  50  38 NE12      30.13R
WICHITA FALLS  PTCLDY    73  52  47 E6        30.15R
LUBBOCK        MOCLDY    68  62  81 E8        30.23R
EL PASO        CLOUDY    70  66  87 E5        30.17R
$$

...MARINE OBSERVATIONS...

STATION/POSITION TIME  SKY/WX   TEMP    WIND        PRES    VSBY  WAVE   SWELL
                                AIR SEA DIR/SP/G                  HT/PER HT/PER
                 (UTC)          (F)     (DEG/KT/KT) (MB)    (MI)  (FT/S) (FT/S)
PORT ARANSAS     0200            84 84   80/ 12/ 13 1017.1R
BUOY 90 E PORT A 0200            83 84   60/ 12/ 14 1016.1R         3/ 6   2/ 6
BUOY 45 SE BAFFI 0200            84 85   70/ 16/ 17 1015.0R         4/ 6   2/ 7
BUOY 200 E PT IS 0200            84 85   50/ 17/ 21 1014.7R         4/ 6
BUOY 15 E GALVES 0200            83 84   30/ 19/ 23 1016.0R         2/ 3
$$


USA.gov is the U.S. government's official web portal to all federal, state and local government web resources and services.